Franktown, CO

6:37 PM MST on February 05, 2016 (GMT -0700)
Monument Pass

Weather History for KMNH - March, 2013

Change the Weather History Date:

Sunday, March 31, 2013

  Actual Average (KAPA) Record (KAPA)
Temperature  
Mean Temperature 45 °F -  
Max Temperature 62 °F 54 °F 80 °F (2012)
Min Temperature 28 °F 29 °F 21 °F (2009)
Degree Days  
Heating Degree Days 20    
Moisture  
Dew Point 21 °F    
Average Humidity 54    
Maximum Humidity 100    
Minimum Humidity 10    
Precipitation  
Precipitation 0.00 in - - ()
Sea Level Pressure  
Sea Level Pressure 30.09 in    
Wind  
Wind Speed 8 mph (SW)    
Max Wind Speed 16 mph    
Max Gust Speed 18 mph    
Visibility 10 miles    
Events      
Averages and records for this station are not official NWS values.
T = Trace of Precipitation, MM = Missing Value Source: NWS Daily Summary

Daily Weather History Graph

Daily Weather History Graph

Search for Another Location

Airport or City:

Trip Planner

Search our weather history database for the weather conditions in past years. The results will help you decide how hot, cold, wet, or windy it might be!

Date:

Astronomy

Mar. 31, 2013 Rise Set
Actual Time 6:44 AM MDT 7:21 PM MDT
Civil Twilight 6:17 AM MDT 7:48 PM MDT
Nautical Twilight 5:45 AM MDT 8:20 PM MDT
Astronomical Twilight 5:12 AM MDT 8:53 PM MDT
Moon No Moon Rise 9:35 AM MDT (3/31)
Length of Visible Light 13h 31m
Length of Day
12h 37m
Waning Gibbous, 77% of the Moon is Illuminated
Mar 31
Waning Gibbous
Apr 2
Last Quarter
Apr 10
New
Apr 18
First Quarter
Apr 25
Full

Hourly Weather History & Observations

Time (MDT) Temp. Windchill Dew Point Humidity Pressure Visibility Wind Dir Wind Speed Gust Speed Precip Events Conditions
12:14 AM 32.0 °F 25.6 °F 32.0 °F 100% 30.22 in 10.0 mi West 6.9 mph - N/A   Mostly Cloudy
12:34 AM 32.0 °F 27.5 °F 32.0 °F 100% 30.23 in 10.0 mi West 4.6 mph - N/A   Scattered Clouds
12:54 AM 32.0 °F 26.4 °F 32.0 °F 100% 30.22 in 10.0 mi WNW 5.8 mph - N/A   Clear
1:14 AM 32.0 °F 26.4 °F 30.2 °F 93% 30.21 in 10.0 mi WNW 5.8 mph - N/A   Clear
1:33 AM 32.0 °F 28.7 °F 30.2 °F 93% 30.21 in 10.0 mi NNW 3.5 mph - N/A   Clear
1:54 AM 32.0 °F 27.5 °F 30.2 °F 93% 30.21 in 10.0 mi NW 4.6 mph - N/A   Clear
2:14 AM 30.2 °F 25.4 °F 30.2 °F 100% 30.21 in 10.0 mi West 4.6 mph - N/A   Clear
2:33 AM 30.2 °F 24.3 °F 28.4 °F 93% 30.19 in 10.0 mi NW 5.8 mph - N/A   Clear
2:54 AM 32.0 °F 28.7 °F 30.2 °F 93% 30.19 in 10.0 mi West 3.5 mph - N/A   Clear
3:14 AM 30.2 °F 21.9 °F 30.2 °F 100% 30.18 in 10.0 mi SW 9.2 mph - N/A   Clear
3:34 AM 30.2 °F 23.4 °F 30.2 °F 100% 30.18 in 10.0 mi SW 6.9 mph - N/A   Clear
3:54 AM 28.4 °F 20.4 °F 26.6 °F 93% 30.18 in 10.0 mi SSW 8.1 mph - N/A   Clear
4:14 AM 28.4 °F 21.2 °F 26.6 °F 93% 30.17 in 10.0 mi SSW 6.9 mph - N/A   Clear
4:33 AM 30.2 °F 23.4 °F 28.4 °F 93% 30.16 in 10.0 mi SSW 6.9 mph - N/A   Clear
4:54 AM 28.4 °F 21.2 °F 26.6 °F 93% 30.15 in 10.0 mi SSW 6.9 mph - N/A   Clear
5:14 AM 28.4 °F 18.5 °F 26.6 °F 93% 30.15 in 10.0 mi SSW 11.5 mph - N/A   Clear
5:33 AM 30.2 °F 21.3 °F 28.4 °F 93% 30.14 in 10.0 mi South 10.4 mph - N/A   Clear
5:54 AM 30.2 °F 20.8 °F 28.4 °F 93% 30.13 in 10.0 mi South 11.5 mph - N/A   Clear
6:14 AM 30.2 °F 20.8 °F 28.4 °F 93% 30.13 in 10.0 mi South 11.5 mph - N/A   Clear
6:34 AM 30.2 °F 19.8 °F 28.4 °F 93% 30.12 in 10.0 mi South 13.8 mph - N/A   Clear
6:53 AM 30.2 °F 20.2 °F 28.4 °F 93% 30.12 in 10.0 mi South 12.7 mph - N/A   Clear
7:14 AM 32.0 °F 22.5 °F 28.4 °F 87% 30.12 in 10.0 mi South 12.7 mph - N/A   Clear
7:34 AM 32.0 °F 23.0 °F 30.2 °F 93% 30.12 in 10.0 mi South 11.5 mph - N/A   Clear
7:53 AM 33.8 °F 24.3 °F 30.2 °F 87% 30.12 in 10.0 mi South 13.8 mph - N/A   Clear
8:14 AM 35.6 °F 26.2 °F 32.0 °F 87% 30.11 in 10.0 mi South 15.0 mph - N/A   Clear
8:34 AM 37.4 °F 28.2 °F 32.0 °F 81% 30.10 in 10.0 mi South 16.1 mph - N/A   Clear
8:53 AM 39.2 °F 31.6 °F 32.0 °F 75% 30.09 in 10.0 mi SSW 12.7 mph - N/A   Clear
9:14 AM 42.8 °F 36.2 °F 32.0 °F 66% 30.09 in 10.0 mi SSW 12.7 mph - N/A   Clear
9:34 AM 44.6 °F 38.8 °F 30.2 °F 57% 30.08 in 10.0 mi SW 11.5 mph - N/A   Clear
9:54 AM 46.4 °F 41.1 °F 26.6 °F 46% 30.08 in 10.0 mi SW 11.5 mph - N/A   Clear
10:13 AM 50.0 °F - 23.0 °F 35% 30.07 in 10.0 mi SW 11.5 mph - N/A   Clear
10:33 AM 51.8 °F - 21.2 °F 30% 30.07 in 10.0 mi WSW 10.4 mph - N/A   Clear
10:54 AM 53.6 °F - 12.2 °F 19% 30.07 in 10.0 mi WSW 8.1 mph - N/A   Clear
11:14 AM 55.4 °F - 10.4 °F 17% 30.07 in 10.0 mi SW 8.1 mph - N/A   Clear
11:34 AM 55.4 °F - 12.2 °F 18% 30.07 in 10.0 mi SW 5.8 mph - N/A   Clear
11:54 AM 57.2 °F - 14.0 °F 18% 30.07 in 10.0 mi WSW 6.9 mph - N/A   Clear
12:14 PM 59.0 °F - 12.2 °F 16% 30.06 in 10.0 mi SW 10.4 mph - N/A   Clear
12:34 PM 59.0 °F - 12.2 °F 16% 30.06 in 10.0 mi WSW 4.6 mph - N/A   Clear
12:54 PM 59.0 °F - 12.2 °F 16% 30.05 in 10.0 mi WSW 6.9 mph - N/A   Clear
1:14 PM 60.8 °F - 8.6 °F 13% 30.05 in 10.0 mi North 4.6 mph - N/A   Clear
1:34 PM 62.6 °F - 10.4 °F 13% 30.04 in 10.0 mi WNW 5.8 mph - N/A   Clear
1:54 PM 62.6 °F - 10.4 °F 13% 30.03 in 10.0 mi NW 6.9 mph - N/A   Clear
2:14 PM 60.8 °F - 8.6 °F 13% 30.02 in 10.0 mi NNW 6.9 mph 16.1 mph N/A   Clear
2:34 PM 62.6 °F - 5.0 °F 10% 30.02 in 10.0 mi NNE 9.2 mph 18.4 mph N/A   Clear
2:54 PM 62.6 °F - 5.0 °F 10% 30.01 in 10.0 mi North 5.8 mph - N/A   Clear
3:13 PM 62.6 °F - 5.0 °F 10% 30.01 in 10.0 mi NNW 6.9 mph - N/A   Clear
3:34 PM 62.6 °F - 6.8 °F 11% 30.00 in 10.0 mi ENE 6.9 mph 16.1 mph N/A   Clear
3:54 PM 62.6 °F - 10.4 °F 13% 30.00 in 10.0 mi North 10.4 mph - N/A   Clear
4:14 PM 62.6 °F - 8.6 °F 12% 30.00 in 10.0 mi North 9.2 mph - N/A   Clear
4:33 PM 62.6 °F - 10.4 °F 13% 30.00 in 10.0 mi NNE 12.7 mph 16.1 mph N/A   Clear
4:54 PM 60.8 °F - 14.0 °F 16% 30.00 in 10.0 mi NNE 12.7 mph - N/A   Clear
5:14 PM 59.0 °F - 12.2 °F 16% 30.01 in 10.0 mi NE 8.1 mph - N/A   Clear
5:34 PM 59.0 °F - 15.8 °F 19% 30.01 in 10.0 mi ENE 15.0 mph 18.4 mph N/A   Clear
5:54 PM 57.2 °F - 15.8 °F 20% 30.02 in 10.0 mi NE 9.2 mph - N/A   Clear
6:14 PM 55.4 °F - 15.8 °F 21% 30.02 in 10.0 mi NE 10.4 mph - N/A   Clear
6:34 PM 53.6 °F - 17.6 °F 24% 30.02 in 10.0 mi ENE 11.5 mph - N/A   Clear
7:14 PM 50.0 °F - 21.2 °F 32% 30.04 in 10.0 mi East 6.9 mph - N/A   Clear
7:34 PM 46.4 °F 44.3 °F 21.2 °F 37% 30.05 in 10.0 mi East 4.6 mph - N/A   Clear
7:54 PM 46.4 °F 43.5 °F 21.2 °F 37% 30.05 in 10.0 mi East 5.8 mph - N/A   Clear
8:14 PM 42.8 °F 39.3 °F 21.2 °F 42% 30.05 in 10.0 mi ESE 5.8 mph - N/A   Clear
8:34 PM 42.8 °F 40.1 °F 21.2 °F 42% 30.06 in 10.0 mi East 4.6 mph - N/A   Clear
9:14 PM 44.6 °F 42.2 °F 19.4 °F 37% 30.06 in 10.0 mi ESE 4.6 mph - N/A   Clear
9:34 PM 41.0 °F 37.1 °F 21.2 °F 45% 30.07 in 10.0 mi SSE 5.8 mph - N/A   Clear
9:54 PM 37.4 °F 32.8 °F 23.0 °F 56% 30.07 in 10.0 mi South 5.8 mph - N/A   Clear
10:14 PM 37.4 °F 32.1 °F 21.2 °F 52% 30.07 in 10.0 mi South 6.9 mph - N/A   Clear
10:34 PM 37.4 °F 32.8 °F 21.2 °F 52% 30.08 in 10.0 mi East 5.8 mph - N/A   Clear
11:14 PM 37.4 °F 32.1 °F 23.0 °F 56% 30.09 in 10.0 mi NE 6.9 mph - N/A   Clear
11:34 PM 37.4 °F 33.8 °F 21.2 °F 52% 30.10 in 10.0 mi ENE 4.6 mph - N/A   Clear
11:53 PM 37.4 °F - 21.2 °F 52% 30.11 in 10.0 mi Calm Calm - N/A   Clear